Yakima, WA

7:22 PM PDT on May 28, 2017 (GMT -0700)
Yakima Air Term-McAllister

Weather History for KYKM - August, 2014

Change the Weather History Date:

Tuesday, August 5, 2014

  Actual Average Record
Temperature  
Mean Temperature 84 °F 72 °F  
Max Temperature 100 °F 89 °F 102 °F (1990)
Min Temperature 68 °F 54 °F 40 °F (1969)
Degree Days  
Heating Degree Days 0 0  
Month to date heating degree days 0 0  
Since 1 June heating degree days 35 119  
Since 1 July heating degree days 5 21  
Cooling Degree Days 19 7  
Month to date cooling degree days 84 35  
Year to date cooling degree days 617 315  
Since 1 June cooling degree days 594 295  
Growing Degree Days 34 (Base 50)    
Moisture  
Dew Point 43 °F    
Average Humidity 25    
Maximum Humidity 37    
Minimum Humidity 12    
Precipitation  
Precipitation 0.00 in 0.01 in 0.14 in (2004)
Month to date precipitation T 0.03  
Year to date precipitation 3.06 4.54  
Snow  
Snow 0.00 in 0.00 in 0.00 in (2002)
Month to date snowfall 0.0 0.0  
Year to date snowfall 19.9 8.6  
Since 1 July snowfall 0.0 0.0  
Snow Depth 0.00 in    
Sea Level Pressure  
Sea Level Pressure 29.86 in    
Wind  
Wind Speed 8 mph (NW)    
Max Wind Speed 22 mph    
Max Gust Speed 29 mph    
Visibility 10 miles    
Events      
T = Trace of Precipitation, MM = Missing Value Source: NWS Daily Summary

Daily Weather History Graph

Daily Weather History Graph

Search for Another Location

Airport or City:

Trip Planner

Search our weather history database for the weather conditions in past years. The results will help you decide how hot, cold, wet, or windy it might be!

Date:

Astronomy

Aug. 05, 2014 Rise Set
Actual Time 5:47 AM PDT 8:27 PM PDT
Civil Twilight 5:13 AM PDT 9:01 PM PDT
Nautical Twilight 4:29 AM PDT 9:45 PM PDT
Astronomical Twilight 3:38 AM PDT 10:35 PM PDT
Moon 3:49 PM PDT (8/5) 12:39 AM PDT (8/5)
Length of Visible Light 15h 48m
Length of Day
14h 39m
Waxing Gibbous, 69% of the Moon is Illuminated
Aug 5
Waxing Gibbous
Aug 10
Full
Aug 17
Last Quarter
Aug 25
New
Sep 2
First Quarter

Hourly Weather History & Observations

Time (PDT) Temp. Dew Point Humidity Pressure Visibility Wind Dir Wind Speed Gust Speed Precip Events Conditions
12:53 AM 79.0 °F 44.1 °F 29% 29.84 in 10.0 mi NW 10.4 mph - N/A   Clear
1:53 AM 78.1 °F 43.0 °F 29% 29.84 in 10.0 mi NNW 6.9 mph - N/A   Clear
2:53 AM 75.9 °F 42.1 °F 30% 29.85 in 10.0 mi Variable 5.8 mph - N/A   Clear
3:53 AM 70.0 °F 43.0 °F 38% 29.85 in 10.0 mi WNW 4.6 mph - N/A   Clear
4:53 AM 70.0 °F 42.1 °F 36% 29.86 in 10.0 mi West 6.9 mph - N/A   Clear
5:53 AM 72.0 °F 39.0 °F 30% 29.87 in 10.0 mi NNW 8.1 mph - N/A   Clear
6:53 AM 75.9 °F 39.9 °F 27% 29.88 in 10.0 mi North 10.4 mph - N/A   Clear
7:53 AM 77.0 °F 43.0 °F 30% 29.90 in 10.0 mi NW 8.1 mph - N/A   Clear
8:53 AM 78.1 °F 46.9 °F 33% 29.91 in 10.0 mi West 4.6 mph - N/A   Clear
9:53 AM 84.9 °F 48.0 °F 28% 29.90 in 10.0 mi WNW 3.5 mph - N/A   Clear
10:53 AM 91.0 °F 44.1 °F 20% 29.88 in 10.0 mi NNW 11.5 mph - N/A   Clear
11:53 AM 93.9 °F 44.1 °F 18% 29.87 in 10.0 mi NNW 5.8 mph - N/A   Clear
12:53 PM 96.1 °F 39.9 °F 14% 29.86 in 10.0 mi NW 4.6 mph - N/A   Clear
1:53 PM 96.1 °F 45.0 °F 17% 29.85 in 10.0 mi Variable 4.6 mph - N/A   Clear
2:53 PM 98.1 °F 43.0 °F 15% 29.82 in 10.0 mi South 5.8 mph - N/A   Clear
3:53 PM 99.0 °F 37.9 °F 12% 29.81 in 10.0 mi SE 4.6 mph - N/A   Clear
4:53 PM 98.1 °F 42.1 °F 15% 29.79 in 10.0 mi South 5.8 mph - N/A   Clear
5:53 PM 98.1 °F 42.1 °F 15% 29.79 in 10.0 mi North - - N/A   Clear
6:53 PM 91.9 °F 44.1 °F 19% 29.81 in 10.0 mi NNW 18.4 mph 24.2 mph N/A   Clear
7:53 PM 87.1 °F 44.1 °F 22% 29.83 in 10.0 mi NNW 12.7 mph 21.9 mph N/A   Clear
8:53 PM 82.9 °F 42.1 °F 24% 29.86 in 10.0 mi NNW 8.1 mph - N/A   Clear
9:53 PM 80.1 °F 42.1 °F 26% 29.89 in 10.0 mi NNW 8.1 mph - N/A   Clear
10:53 PM 79.0 °F 41.0 °F 26% 29.89 in 10.0 mi NNW 10.4 mph - N/A   Clear
11:53 PM 77.0 °F 41.0 °F 28% 29.88 in 10.0 mi NW 17.3 mph 24.2 mph N/A   Clear